Regional Weather Roundup
Issued by NWS

Home | Current Version | Previous Version | Graphics & Text | Print | Product List | Glossary On
Versions: 1 2 3 4 5 6 7 8 9 10 11 12 13 14 15 16 17 18 19 20 21 22 23 24 25 26 27 28 29 30 31 32 33 34 35 36 37 38 39 40 41 42 43 44 45 46 47 48 49 50
000
ASUS45 KTFX 231210
RWRMT
MONTANA REGIONAL WEATHER ROUNDUP
NATIONAL WEATHER SERVICE GREAT FALLS MT
600 AM MDT MON MAY 23 2016

NOTE: "FAIR" INDICATES FEW OR NO CLOUDS BELOW 12000 FEET WITH NO
SIGNIFICANT WEATHER AND/OR OBSTRUCTIONS TO VISIBILITY.

MTZ001>007-043-231300-
WEST OF THE DIVIDE

CITY           SKY/WX    TMP DP  RH WIND       PRES   REMARKS
KALISPELL      CLOUDY    47  41  80 S8        29.70R
MISSOULA       CLOUDY    44  42  93 S3        29.81R
BUTTE          CLOUDY    43  25  49 W10G21    29.82R
MULLAN PASS    CLOUDY    33  33 100 SW12G24   29.77S WCI  24
ANACONDA         N/A     45  28  53 S3        29.80S
DEER LODGE       N/A     43  34  70 NE6       29.79S
EUREKA           N/A     46  43  87 E6        29.70R
HAMILTON         N/A     46  36  66 E3        29.82S
LIBBY            N/A     45  45 100 CALM      29.72R
PLAINS           N/A     51  39  63 S1        29.79R
$$

MTZ008-052>055-231300-
SOUTHWEST MONTANA

CITY           SKY/WX    TMP DP  RH WIND       PRES   REMARKS
BOZEMAN        CLOUDY    48  28  46 SW13      29.79S
DILLON         CLOUDY    39  29  67 SW9       29.83S
ENNIS          CLEAR     39  32  75 S14       29.90R WCI  31
TWIN BRIDGES     N/A     42  28  58 CALM      29.84S
$$

MTZ009-010-012-014-046-048-049-054-231300-
EAST SLOPES AND CENTRAL MONTANA

CITY           SKY/WX    TMP DP  RH WIND       PRES   REMARKS
CUT BANK       LGT RAIN  39  37  92 N14       29.64R WCI  31
GREAT FALLS    CLOUDY    47  33  58 SW21G30   29.64S
MALMSTROM AFB  CLOUDY    48  34  57 SW24G35   29.65R
HELENA         CLOUDY    49  32  52 W10       29.75R
CHOTEAU          N/A     48  32  53 W9        29.64R
$$

MTZ011-013-016-021-045-047-050-051-231300-
NORTH CENTRAL MONTANA

CITY           SKY/WX    TMP DP  RH WIND       PRES   REMARKS
HAVRE          CLOUDY    45  42  89 SW15      29.59R
LEWISTOWN      CLOUDY    49  31  49 SW18G29   29.68R
N BAR RANCH      N/A     46  28  49 W15G22    29.70R
CHINOOK          N/A     46  43  87 W12G17    29.58S
$$

MTZ017>020-022>027-061-062-231300-
NORTHEAST MONTANA

CITY           SKY/WX    TMP DP  RH WIND       PRES   REMARKS
GLASGOW        CLOUDY    52  39  61 W12       29.59S
JORDAN           N/A     49  50 100 SW14      29.63F
SIDNEY         CLEAR     45  39  79 CALM      29.64S
WOLF POINT     MOCLDY    41  37  86 CALM      29.61S
PLENTYWOOD       N/A     46  37  71 SE3       29.60S
POPLAR           N/A     46  37  71 SE5       29.61F
SCOBEY           N/A     44  29  56 S2        29.59S
$$

MTZ028>42-056>058-231300-
SOUTHCENTRAL AND SOUTHEAST MONTANA

CITY           SKY/WX    TMP DP  RH WIND       PRES   REMARKS
BAKER          CLEAR     48  35  60 SW10      29.73R
BILLINGS       PTCLDY    47  33  58 SW14      29.74S
LIVINGSTON     CLOUDY    47  28  47 W24G35    29.75S
MILES CITY     CLEAR     48  37  65 S6        29.69R
EKALAKA          N/A     48  32  54 CALM      29.75
FORSYTH          N/A     54  34  47 SW10      29.69S
$$

REGIONAL REPORTS...DAKOTAS

CITY           SKY/WX    TMP DP  RH WIND       PRES   REMARKS
WILLISTON      CLEAR     44  36  73 CALM      29.63S
MINOT          CLEAR     56  42  59 S7        29.60R
DICKINSON      CLEAR     45  37  73 W7        29.66R
BEACH            N/A     46  37  71 SW10      29.71R
CROSBY           N/A     48  39  71 SW10      29.63R
WATFORD CITY     N/A     43  39  87 SW3       29.65S
BISMARCK       CLEAR     52  48  86 S3        29.66S
GRAND FORKS    CLOUDY    63  58  83 SE13G28   29.54R
FARGO          CLOUDY    64  60  87 S5        29.60R
BUFFALO SD       N/A     40  36  86 S5        29.67R
RAPID CITY     CLEAR     41  37  86 CALM      29.76R
$$

REGIONAL REPORTS...WYOMING/IDAHO/WASHINGTON

CITY           SKY/WX    TMP DP  RH WIND       PRES   REMARKS
GILLETTE       CLEAR     44  29  55 S7        29.79S
SHERIDAN       CLEAR     40  27  59 NE6       29.77R
BUFFALO WY     CLEAR     39  25  57 W5        29.79S
CODY           CLEAR     46  25  42 SW7G17    29.81S
YELLOWSTONE LA   N/A     32  25  75 VRB5      29.94F
IDAHO FALLS    CLEAR     35  31  85 SW9       29.94S WCI  28
SALMON         CLOUDY    43  34  70 CALM      29.85F
BOISE          CLEAR     45  37  73 SE10      29.90S
SPOKANE        CLOUDY    46  39  76 SW17      29.79R
$$

REGIONAL REPORTS...ALBERTA

CITY           SKY/WX    TMP DP  RH WIND       PRES   REMARKS
EDMONTON       LGT RAIN  43  39  87 NW12G18   29.60R
CALGARY        LGT RAIN  39  36  87 NW22G28   29.62R WCI  29
LETHBRIDGE     MOCLDY    43  39  87 W18       29.62R
MEDICINE HAT   LGT RAIN  43  43 100 W14G21    29.52S FOG
WATERTON GATE    N/A     39  36  87 SE5         N/A
MILK RIVER       N/A     39  37  93 W12         N/A  WCI  32
$$

REGIONAL REPORTS...SASKATCHEWAN

CITY           SKY/WX    TMP DP  RH WIND       PRES   REMARKS
SWIFT CURRENT  CLOUDY    43  39  87 SW22G29   29.46S
REGINA         MOCLDY    46  39  76 S10       29.52S
SASKATOON      PTCLDY    43  41  93 S8        29.47R
CYPRESS HILLS    N/A     36  32  87 W9          N/A  WCI  29
VAL MARIE        N/A     45  39  81 SW14        N/A
ROCKGLEN         N/A     46  41  81 SW22        N/A
ASSINIBOIA       N/A     46  46 100 N10         N/A
$$



USA.gov is the U.S. government's official web portal to all federal, state and local government web resources and services.